Probability
0 0 0 0 0 0 0 0 0 0 0 0 0 1 2 2 1 1 1 1 2 2 1 0 0 1 3 3 3 1 0 0 0 0 0 0 0 0 1 2 3 3 3
0 0 0 0 0 0 0 0 0 0 0 0 0 0 1 1 2 2 2 2 2 1 0 0 1 2 3 3 3 2 1 0 0 0 0 0 0 0 1 2 3 3 3
0 0 0 0 0 0 0 0 0 0 0 0 0 0 1 1 2 2 3 3 2 1 0 1 2 3 4 3 3 2 1 0 0 0 0 0 0 0 0 1 3 3 3
0 0 0 0 1 1 2 1 1 0 0 0 0 0 1 1 1 1 2 3 1 0 0 0 1 3 4 4 4 3 1 1 1 0 0 0 0 0 0 1 2 3 3
0 0 0 0 1 2 2 2 1 1 1 0 0 0 0 0 0 0 1 2 1 0 0 0 0 1 3 4 4 4 3 2 1 0 0 0 1 1 2 1 2 3 3
0 0 0 0 1 2 1 1 1 1 1 0 0 0 0 0 0 0 1 2 1 0 0 0 0 0 1 2 2 3 4 5 4 2 1 1 2 3 3 3 3 3 3
0 0 0 0 1 1 1 1 1 1 1 0 0 0 0 0 0 0 1 1 1 0 0 0 0 0 0 0 1 2 4 6 7 6 4 4 3 3 3 3 3 3 3
0 0 0 1 2 2 2 2 2 2 1 0 0 0 0 0 0 0 0 0 0 0 0 0 0 0 0 1 1 2 4 7 9 9 7 6 5 4 3 4 4 4 4
0 0 0 1 2 2 2 2 2 2 1 0 0 0 0 0 0 0 0 0 0 0 0 0 0 0 0 1 2 3 4 5 8 9 9 8 7 5 5 5 6 6 6
0 0 0 0 1 1 1 1 1 1 1 0 0 0 0 0 0 0 0 0 0 0 0 0 0 0 0 1 1 1 2 2 3 6 7 8 9 8 8 8 7 6 6
0 0 0 0 0 0 0 0 0 0 0 0 0 0 0 0 0 0 0 0 0 0 0 0 0 0 0 0 0 0 0 0 0 2 3 5 8 10 11 10 8 7 7
0 0 0 0 0 0 0 0 0 0 0 0 0 0 0 0 0 0 0 0 0 0 0 0 0 0 1 0 0 0 0 0 0 0 1 2 5 7 10 11 10 9 8
1 0 0 0 0 0 0 0 0 0 0 0 0 0 0 0 0 0 0 0 0 0 0 0 0 0 0 0 0 0 0 0 0 0 0 0 2 3 5 8 11 11 9
1 1 1 1 0 0 0 0 0 1 1 1 1 0 0 0 0 0 0 1 2 1 1 1 0 0 0 0 0 0 0 0 0 0 0 0 0 1 2 4 7 8 7
1 1 2 2 1 1 1 1 1 2 2 2 2 1 0 0 1 1 1 2 3 3 3 2 1 0 0 0 0 0 0 0 0 0 0 0 0 0 0 1 2 2 2
1 2 2 2 2 1 1 2 3 3 3 3 2 2 1 1 2 2 3 3 4 5 4 3 2 1 0 0 0 0 0 0 0 0 0 0 0 0 0 0 0 0 0
3 3 3 3 4 3 2 3 4 3 3 3 3 4 3 3 3 4 4 4 5 6 5 4 3 1 0 0 0 0 0 0 0 0 0 0 0 0 0 0 0 0 0
5 4 4 5 6 4 3 4 5 4 4 4 5 6 6 5 5 5 6 6 6 6 6 5 3 1 0 0 0 0 0 0 0 0 0 0 0 0 0 0 0 0 0
7 6 5 6 7 6 5 6 7 6 6 6 8 9 9 8 8 7 6 6 6 6 6 5 2 0 0 0 0 0 0 0 0 0 0 0 0 0 0 0 0 0 0
9 8 7 8 9 9 8 8 9 9 9 10 10 11 10 9 8 7 6 6 6 6 6 4 2 0 0 0 0 0 0 0 0 0 0 0 0 0 0 0 0 0 0
10 10 9 9 10 10 9 11 12 11 11 11 11 10 9 8 7 7 6 6 6 7 7 5 3 1 1 1 1 0 0 0 0 0 0 0 0 0 0 0 0 0 0
13 12 11 10 9 8 7 8 11 12 13 13 11 9 7 6 6 6 6 5 5 5 6 5 4 2 2 2 1 0 0 0 0 0 0 0 0 0 0 0 0 0 0
16 15 12 10 9 7 5 4 6 10 13 13 10 7 7 6 6 6 5 4 3 3 2 3 3 2 2 2 2 1 1 0 0 0 0 0 0 0 0 0 0 0 0
17 16 15 13 12 9 5 2 3 7 10 10 8 7 6 6 6 5 4 3 3 1 0 1 1 1 1 2 2 2 2 1 1 0 0 0 0 0 0 0 0 0 0
18 19 19 18 16 12 7 4 4 6 8 8 6 6 5 4 4 3 3 3 3 2 0 0 0 0 0 1 1 1 2 3 2 1 0 0 0 0 0 0 0 0 0
20 22 23 21 19 15 10 6 4 6 7 7 5 4 4 4 3 2 3 3 3 1 0 0 0 0 0 0 0 1 2 3 2 1 0 0 0 0 1 1 1 0 0
Wind_Speed
1 1 1 1 1 1 1 1 1 2 2 2 2 2 2 2 3 2 2 5 5 6 7 7 8 8 8 8 9 9 9 9 9 8 7 7 7 8 8 8 8 7 7
1 1 1 1 1 1 1 1 2 2 2 1 2 2 2 2 3 3 3 4 6 7 7 7 8 8 8 8 9 9 9 9 9 8 8 8 7 7 7 7 7 7 7
2 1 1 1 1 1 1 1 1 1 1 1 1 2 2 2 3 3 3 3 3 6 7 7 7 8 9 9 9 10 10 9 9 9 8 8 8 8 8 8 8 8 8
2 1 1 2 1 0 0 1 1 0 1 1 1 2 1 2 3 3 3 3 2 3 4 6 6 7 8 9 9 9 10 10 9 9 8 9 8 8 9 9 9 8 8
2 2 2 1 1 0 0 1 1 1 1 1 1 1 1 1 2 2 2 2 2 2 2 4 5 5 7 8 8 9 8 9 9 9 10 10 9 9 8 9 9 9 8
2 2 1 1 1 1 0 0 0 0 1 1 1 1 1 1 1 1 2 2 2 2 2 3 2 3 5 5 6 6 7 7 8 8 9 8 8 8 8 8 9 9 9
2 2 1 1 1 1 1 1 1 1 0 0 1 1 2 1 0 0 1 1 1 1 2 2 2 2 2 4 4 5 6 7 7 7 8 8 8 7 7 8 8 9 9
2 2 2 2 1 1 1 1 1 1 0 1 1 1 1 2 2 1 0 0 1 0 1 1 2 2 2 2 2 3 4 5 6 6 6 6 6 6 7 8 8 8 8
2 2 3 2 2 2 2 1 2 2 1 1 1 2 2 1 1 2 1 1 1 0 1 1 1 1 1 1 2 3 4 5 5 6 6 7 7 7 7 7 7 7 8
1 2 2 2 2 2 2 2 2 2 2 1 1 0 1 2 2 1 2 1 1 1 1 1 1 1 1 1 2 3 3 4 4 6 6 6 6 6 7 7 7 7 7
1 2 2 2 2 2 2 2 2 2 2 2 2 1 1 1 1 2 1 2 2 1 1 1 1 1 1 2 2 3 4 4 3 4 5 6 6 6 6 7 8 8 7
1 1 2 2 2 2 2 2 2 2 2 2 2 2 2 2 2 2 2 2 1 1 1 1 1 1 2 2 3 3 4 3 3 3 4 4 5 5 5 6 6 7 6
1 2 1 1 1 2 2 2 2 2 2 2 2 2 2 2 2 2 2 1 1 1 1 1 1 1 1 1 2 3 3 3 3 3 3 4 4 4 4 3 4 4 4
2 2 2 2 2 2 2 2 1 2 1 2 2 2 1 2 2 2 2 2 1 1 1 2 1 1 1 1 2 2 2 3 3 3 3 4 4 3 3 3 3 2 3
3 3 3 3 2 2 2 2 1 2 1 2 2 2 1 1 1 2 2 3 3 2 2 2 1 1 1 1 2 1 2 2 2 2 2 3 3 3 2 2 2 2 2
3 3 3 3 2 2 2 2 1 1 1 1 1 1 1 1 1 1 2 2 2 3 2 1 1 1 1 1 2 1 2 2 2 2 2 2 2 2 2 2 2 2 2
4 4 4 3 3 3 3 2 2 2 2 1 1 2 2 2 1 1 2 2 2 2 2 1 1 1 1 2 2 2 1 1 1 1 1 1 2 2 2 3 3 3 3
3 4 3 3 3 3 3 3 3 3 3 3 2 2 2 2 1 1 1 2 2 2 2 2 1 1 1 1 1 2 2 2 1 2 1 1 1 2 2 2 2 3 2
3 3 3 4 3 3 3 4 4 4 4 3 3 3 3 2 2 2 2 2 1 2 2 2 1 1 1 1 1 2 2 2 2 2 1 1 1 1 2 2 2 2 2
3 3 3 4 4 3 3 3 3 3 3 3 3 3 3 3 3 3 2 2 2 2 2 2 1 1 1 1 1 1 2 2 2 2 3 2 1 0 1 2 2 2 2
3 3 2 2 3 3 3 3 3 3 3 2 2 2 2 2 3 3 2 2 2 2 2 2 2 1 1 0 1 0 1 2 2 1 2 2 1 1 1 1 2 2 2
3 3 3 3 3 3 3 4 4 3 3 2 2 2 1 1 2 2 2 3 3 3 3 2 2 2 2 2 1 1 0 0 1 1 1 2 1 1 2 1 1 1 2
4 3 3 3 3 4 4 4 5 3 3 3 3 2 1 1 2 1 2 2 2 2 4 4 3 4 3 2 2 2 1 1 2 2 1 2 1 1 2 2 2 1 1
3 3 3 4 3 4 4 4 4 3 2 2 3 3 2 2 2 2 2 1 1 1 2 3 3 3 3 3 3 2 2 1 2 1 1 1 1 1 2 2 2 1 1
3 3 3 3 4 4 4 5 5 3 2 2 2 2 3 3 3 4 3 2 1 1 0 1 2 2 2 2 3 2 2 1 1 1 1 1 1 1 1 1 1 2 2
3 3 3 3 4 3 4 5 5 3 3 2 1 2 3 3 3 4 4 3 3 2 1 1 1 0 1 1 3 3 3 2 1 1 1 1 1 0 1 0 1 2 2
Wind_Direction
215 240 261 273 275 262 234 239 240 244 249 254 239 225 225 215 221 220 233 237 235 228 223 219 215 214 212 210 208 208 210 212 210 207 208 212 215 217 216 215 214 211 210
204 216 243 260 265 246 228 224 237 246 257 256 258 244 235 226 226 221 225 237 234 229 228 226 225 224 222 218 214 212 213 217 213 209 211 214 216 219 220 219 217 214 212
200 204 223 250 258 243 215 216 252 251 252 241 252 254 240 234 232 227 226 230 236 234 234 231 230 232 230 226 223 218 215 216 213 214 215 219 219 219 221 221 218 217 215
198 188 213 244 251 226 179 182 193 196 267 262 261 266 254 244 238 234 229 228 229 236 238 238 237 237 238 232 228 223 219 217 214 213 214 220 223 223 222 221 221 219 217
198 189 212 236 213 169 204 222 168 172 213 264 260 256 249 247 248 246 242 235 228 230 232 241 241 241 241 241 235 230 224 222 221 219 219 220 222 223 224 223 221 220 220
187 179 194 228 172 150 193 167 148 133 199 232 286 340 300 257 243 255 250 243 234 232 232 244 248 254 254 253 248 233 226 221 220 221 221 219 219 221 223 222 222 222 223
174 165 173 182 173 187 203 168 142 119 55 97 75 6 348 346 341 286 250 250 256 246 226 230 238 242 252 254 248 242 238 232 224 222 220 219 219 222 223 224 226 225 226
185 182 176 186 180 175 174 155 147 139 175 125 123 99 1 345 344 356 336 245 283 280 231 232 231 230 235 239 244 241 245 239 230 226 217 213 217 222 225 228 230 231 226
193 190 184 181 186 178 194 204 181 169 182 198 142 144 151 225 307 330 327 331 309 303 273 253 241 249 237 237 254 249 241 244 238 228 219 217 218 223 227 228 228 229 228
200 193 187 185 192 191 199 211 191 186 174 189 190 193 171 163 170 302 320 327 309 283 275 279 278 267 254 243 254 258 250 243 245 242 232 227 224 222 222 223 226 228 228
212 204 193 191 197 204 213 215 197 186 183 180 175 168 155 136 168 175 256 302 323 307 278 261 261 264 251 246 249 262 261 255 248 250 244 237 229 228 226 225 230 232 230
216 216 188 183 196 201 210 215 204 192 197 188 181 170 170 174 186 182 211 242 271 292 292 273 259 259 248 247 256 269 262 268 262 253 248 243 234 233 239 233 228 230 230
213 225 196 180 197 204 203 197 191 203 193 188 198 198 192 197 176 171 177 213 254 288 298 283 271 281 277 267 275 289 282 278 272 258 249 247 238 231 228 222 221 227 230
205 208 196 188 192 194 199 189 195 215 198 203 209 198 196 206 188 183 181 176 207 287 291 278 296 286 301 288 300 296 293 284 277 268 252 241 232 225 221 214 205 212 222
197 196 189 185 188 188 189 184 195 213 198 202 210 207 209 220 205 204 189 179 176 209 255 265 279 308 303 281 319 313 298 307 293 278 259 242 231 227 223 221 218 210 211
197 194 191 185 187 190 191 190 198 218 193 215 212 199 212 220 205 196 194 192 187 187 223 250 248 294 330 340 1 329 316 331 311 295 282 248 228 221 218 220 220 214 215
195 195 193 194 195 198 197 194 211 207 205 224 226 210 226 204 185 192 185 185 186 178 207 257 249 297 322 342 350 344 334 324 320 297 288 264 232 218 220 227 228 225 224
196 199 196 193 199 203 203 201 214 215 212 219 227 217 229 214 189 196 194 195 190 185 190 218 233 272 281 319 350 347 350 355 329 334 304 260 221 207 231 243 248 246 238
203 200 198 201 207 209 210 211 211 214 218 221 221 213 217 197 202 204 200 202 198 185 181 182 208 218 259 332 8 356 1 358 342 348 349 259 225 226 240 248 252 255 252
208 209 209 209 212 213 211 212 209 216 222 224 222 216 211 204 205 203 200 197 179 161 158 164 189 207 256 312 351 344 348 354 344 352 360 353 352 259 251 250 254 256 249
209 208 200 207 214 211 217 210 205 207 205 210 219 222 214 199 191 188 180 179 166 164 166 171 188 183 220 241 267 277 319 335 331 331 336 340 338 323 312 291 267 257 255
188 186 192 205 219 229 228 206 194 196 194 195 207 221 205 175 162 145 146 160 168 175 180 179 193 210 230 224 218 213 198 324 311 318 326 322 336 325 320 306 306 275 261
180 186 195 200 226 240 222 205 192 185 187 194 193 192 193 163 154 151 128 126 146 168 175 179 196 219 219 213 199 217 224 234 252 276 294 293 300 308 312 318 320 296 278
186 198 209 214 227 243 221 201 186 184 188 193 193 193 187 188 182 162 153 134 139 189 196 194 207 224 221 213 204 208 214 240 268 268 242 259 288 297 322 324 338 351 9
201 209 208 212 223 244 222 196 180 179 188 199 197 191 189 196 194 166 159 160 156 297 164 153 188 215 219 209 178 156 165 183 262 270 229 237 256 306 327 327 353 20 32
210 213 220 222 221 231 221 198 179 172 183 201 212 214 203 195 192 180 176 175 193 232 211 118 112 53 192 177 166 184 188 186 213 257 228 222 227 249 315 326 350 357 10